Date String (YYYY-MM-DD hh:mm:ss) UTC,Instrument flags,Ambient pressure (hPa),Sample flow (lpm),Bypass flow (lpm),Sample temperature (°C),Ambient temperature (°C),ASC tube jacket temperature (°C),LED temperature (°C),Box temperature (°C),Sample RH (%),Span deviation,Mass concentration (μg/m³),Mass concentration (μg/m³),Mass concentration (μg/m³)
DateTimeUTC,F1_M11,P_M11,Q1_M11,Q2_M11,T1_M11,T2_M11,T3_M11,T4_M11,T5_M11,U1_M11,ZSPAN_M11,X0_M11,X2_M11,X1_M11
2021-08-28 11:00:00,,0825.2,5.00,0.00,29.9,29.0,00.0,38.9,31.8,14.9,0000.5,0008.18,0004.68,0004.23
2021-08-28 11:01:00,,0825.2,5.00,0.00,30.0,29.1,00.0,39.0,31.7,15.0,0000.9,0008.24,0004.65,0004.23
2021-08-28 11:02:00,,0825.2,5.02,0.00,30.0,29.1,00.0,39.0,31.8,15.0,0001.1,0008.17,0004.67,0004.22
2021-08-28 11:03:00,,0825.2,5.00,0.00,30.0,29.1,00.0,39.0,31.8,15.0,0001.2,0008.10,0004.67,0004.22
2021-08-28 11:04:00,,0825.2,4.99,0.00,30.0,28.4,00.0,39.0,31.6,15.0,0001.2,0008.14,0004.69,0004.23
2021-08-28 11:05:00,,0825.2,5.01,0.00,29.9,26.6,00.0,39.0,31.2,15.2,0001.1,0008.19,0004.70,0004.23
2021-08-28 11:06:00,,0825.2,4.99,0.00,29.7,26.3,00.0,39.0,31.1,15.2,0001.2,0008.15,0004.70,0004.23
2021-08-28 11:07:00,,0825.2,5.01,0.00,29.6,26.6,00.0,38.9,31.1,15.3,0001.7,0008.14,0004.71,0004.23
2021-08-28 11:08:00,,0825.3,4.99,0.00,29.6,27.1,00.0,38.9,31.1,15.4,0002.0,0008.16,0004.72,0004.24
2021-08-28 11:09:00,,0825.3,5.00,0.00,29.6,27.4,00.0,38.8,31.2,15.4,0002.1,0008.31,0004.73,0004.24
2021-08-28 11:10:00,,0825.3,5.01,0.00,29.6,27.7,00.0,38.8,31.3,15.5,0002.0,0008.39,0004.72,0004.23
2021-08-28 11:11:00,,0825.3,4.99,0.00,29.6,28.0,00.0,38.8,31.3,15.5,0001.9,0008.30,0004.70,0004.22
2021-08-28 11:12:00,,0825.4,5.00,0.00,29.6,28.1,00.0,38.8,31.4,15.3,0001.8,0008.15,0004.69,0004.21
2021-08-28 11:13:00,,0825.3,4.99,0.00,29.7,28.3,00.0,38.8,31.4,15.2,0001.6,0008.10,0004.68,0004.21
2021-08-28 11:14:00,,0825.3,5.00,0.00,29.7,28.4,00.0,38.8,31.4,15.3,0001.7,0008.16,0004.69,0004.22
2021-08-28 11:15:00,,0825.4,5.01,0.00,29.7,28.5,00.0,38.8,31.5,15.3,0002.1,0008.11,0004.67,0004.22
2021-08-28 11:16:00,,0825.3,4.99,0.00,29.7,28.6,00.0,38.8,31.5,15.3,0002.2,0008.24,0004.65,0004.22
2021-08-28 11:17:00,,0825.3,5.00,0.00,29.8,28.7,00.0,38.8,31.5,15.3,0002.1,0008.80,0004.67,0004.23
2021-08-28 11:18:00,,0825.3,5.00,0.00,29.8,28.7,00.0,38.8,31.6,15.4,0001.8,0008.86,0004.70,0004.24
2021-08-28 11:19:00,,0825.3,4.99,0.00,29.8,28.8,00.0,38.8,31.6,15.4,0001.6,0008.83,0004.68,0004.23
2021-08-28 11:20:00,,0825.3,5.00,0.00,29.8,28.8,00.0,38.9,31.6,15.7,0001.2,0008.80,0004.68,0004.23
2021-08-28 11:21:00,,0825.3,5.00,0.00,29.9,28.9,00.0,38.9,31.7,15.7,0001.3,0008.42,0004.64,0004.23
2021-08-28 11:22:00,,0825.4,5.00,0.00,29.9,28.9,00.0,38.9,31.7,15.7,0001.3,0008.46,0004.66,0004.24
2021-08-28 11:23:00,,0825.5,5.00,0.00,29.9,29.0,00.0,38.9,31.7,16.3,0001.6,0008.71,0004.70,0004.26
2021-08-28 11:24:00,,0825.3,5.01,0.00,29.9,29.0,00.0,38.9,31.7,16.3,0001.9,0009.05,0004.76,0004.28
2021-08-28 11:25:00,,0825.4,5.00,0.00,30.0,29.1,00.0,39.0,31.8,16.4,0001.9,0009.79,0004.80,0004.29
2021-08-28 11:26:00,,0825.4,4.99,0.00,30.0,29.1,00.0,39.0,31.8,16.3,0001.7,0010.12,0004.81,0004.29
2021-08-28 11:27:00,,0825.4,5.00,0.00,30.0,29.1,00.0,39.0,31.8,16.2,0001.3,0010.11,0004.85,0004.29
2021-08-28 11:28:00,,0825.4,5.00,0.00,30.0,29.1,00.0,39.0,31.8,15.9,0001.6,0009.68,0004.84,0004.29
2021-08-28 11:29:00,,0825.4,5.01,0.00,30.0,27.4,00.0,39.0,31.4,15.8,0001.8,0009.82,0004.80,0004.29
2021-08-28 11:30:00,,0825.4,5.00,0.00,29.8,26.3,00.0,39.0,31.1,15.8,0002.2,0010.00,0004.81,0004.28
2021-08-28 11:31:00,,0825.4,5.00,0.00,29.7,26.4,00.0,39.0,31.1,15.7,0002.2,0010.33,0004.82,0004.27
2021-08-28 11:32:00,,0825.4,4.99,0.00,29.6,26.8,00.0,38.9,31.1,15.9,0002.4,0010.93,0004.86,0004.28
2021-08-28 11:33:00,,0825.5,5.00,0.00,29.6,27.2,00.0,38.9,31.2,16.0,0002.4,0011.52,0004.86,0004.28
2021-08-28 11:34:00,,0825.4,5.01,0.00,29.6,27.5,00.0,38.9,31.2,16.2,0001.9,0011.47,0004.86,0004.27
2021-08-28 11:35:00,,0825.4,4.99,0.00,29.6,27.8,00.0,38.8,31.3,16.3,0002.0,0011.74,0004.85,0004.26
2021-08-28 11:36:00,,0825.4,4.99,0.00,29.6,28.0,00.0,38.8,31.3,16.3,0001.9,0011.26,0004.82,0004.26
2021-08-28 11:37:00,,0825.4,5.00,0.00,29.7,28.2,00.0,38.8,31.4,16.2,0002.0,0011.07,0004.82,0004.25
2021-08-28 11:38:00,,0825.4,5.01,0.00,29.7,28.3,00.0,38.8,31.4,16.1,0002.3,0011.30,0004.80,0004.26
2021-08-28 11:39:00,,0825.4,5.00,0.00,29.7,28.4,00.0,38.8,31.4,16.1,0002.4,0011.22,0004.78,0004.26
2021-08-28 11:40:00,,0825.5,4.99,0.00,29.7,28.5,00.0,38.8,31.4,16.1,0002.3,0010.98,0004.79,0004.26
2021-08-28 11:41:00,,0825.5,5.00,0.00,29.7,28.5,00.0,38.8,31.5,16.0,0002.0,0010.88,0004.79,0004.28
2021-08-28 11:42:00,,0825.5,4.99,0.00,29.8,28.6,00.0,38.8,31.5,15.8,0002.3,0010.62,0004.79,0004.28
2021-08-28 11:43:00,,0825.5,5.00,0.00,29.8,28.6,00.0,38.8,31.5,15.4,0002.5,0010.06,0004.76,0004.27
2021-08-28 11:44:00,,0825.5,5.00,0.00,29.8,28.7,00.0,38.9,31.5,15.3,0002.5,0009.66,0004.74,0004.27
2021-08-28 11:45:00,,0825.5,5.01,0.00,29.8,28.7,00.0,38.9,31.6,15.5,0002.5,0009.74,0004.71,0004.28
2021-08-28 11:46:00,,0825.5,5.00,0.00,29.8,28.7,00.0,38.9,31.6,15.5,0002.6,0009.61,0004.69,0004.28
2021-08-28 11:47:00,,0825.5,4.99,0.00,29.9,28.8,00.0,38.9,31.7,15.6,0002.9,0009.45,0004.72,0004.28
2021-08-28 11:48:00,,0825.5,5.00,0.00,29.9,28.8,00.0,38.9,31.7,15.5,0002.6,0009.39,0004.71,0004.29
2021-08-28 11:49:00,,0825.5,5.00,0.00,29.9,28.9,00.0,38.9,31.7,15.6,0002.1,0009.11,0004.67,0004.26
2021-08-28 11:50:00,,0825.5,5.00,0.00,29.9,28.9,00.0,38.9,31.7,15.8,0002.0,0009.41,0004.65,0004.25
2021-08-28 11:51:00,,0825.5,4.99,0.00,29.9,28.9,00.0,39.0,31.7,16.0,0001.8,0009.64,0004.65,0004.25
2021-08-28 11:52:00,,0825.5,5.00,0.00,30.0,29.0,00.0,39.0,31.7,15.5,0001.9,0009.87,0004.67,0004.24
2021-08-28 11:53:00,,0825.5,5.01,0.00,30.0,29.0,00.0,39.0,31.7,15.9,0001.9,0010.07,0004.67,0004.24
2021-08-28 11:54:00,,0825.6,5.01,0.00,30.0,29.0,00.0,39.0,31.7,15.9,0001.2,0010.79,0004.69,0004.25
2021-08-28 11:55:00,,0825.6,5.00,0.00,30.0,29.0,00.0,39.0,31.8,15.9,0000.9,0010.78,0004.73,0004.28
2021-08-28 11:56:00,,0825.6,4.99,0.00,30.0,29.1,00.0,39.0,31.8,15.5,0001.1,0010.52,0004.74,0004.27
2021-08-28 11:57:00,,0825.6,5.00,0.00,30.1,29.1,00.0,39.1,31.8,15.6,0000.5,0010.14,0004.72,0004.26
2021-08-28 11:58:00,,0825.6,5.00,0.00,30.1,28.9,00.0,39.1,31.8,15.5,0000.4,0009.80,0004.65,0004.24
2021-08-28 11:59:00,,0825.6,5.01,0.00,30.0,27.1,00.0,39.1,31.3,15.4,0001.0,0009.76,0004.63,0004.21
